Olathe, KS

9:15 PM CST on December 03, 2016 (GMT -0600)
Johnson County Executive

Weather History for KOJC - October, 2012

Change the Weather History Date:

Tuesday, October 23, 2012

  Actual Average Record
Temperature  
Mean Temperature 74 °F 54 °F  
Max Temperature 79 °F 64 °F 91 °F (1939)
Min Temperature 68 °F 45 °F 25 °F (1981)
Degree Days  
Heating Degree Days 0 11  
Month to date heating degree days 211 176  
Since 1 July heating degree days 249 225  
Cooling Degree Days 9 0  
Month to date cooling degree days 21 27  
Year to date cooling degree days 1818 1348  
Growing Degree Days 24 (Base 50)    
Moisture  
Dew Point 65 °F    
Average Humidity 73    
Maximum Humidity 84    
Minimum Humidity 62    
Precipitation  
Precipitation 0.00 in 0.10 in 1.54 in (1977)
Month to date precipitation 1.07 2.70  
Year to date precipitation 22.79 35.17  
Sea Level Pressure  
Sea Level Pressure 29.77 in    
Wind  
Wind Speed 14 mph (South)    
Max Wind Speed 23 mph    
Max Gust Speed 31 mph    
Visibility 10 miles    
Events      
T = Trace of Precipitation, MM = Missing Value Source: NWS Daily Summary

Daily Weather History Graph

Daily Weather History Graph

Search for Another Location

Airport or City:

Trip Planner

Search our weather history database for the weather conditions in past years. The results will help you decide how hot, cold, wet, or windy it might be!

Date:

Astronomy

Oct. 23, 2012 Rise Set
Actual Time 7:37 AM CDT 6:28 PM CDT
Civil Twilight 7:09 AM CDT 6:55 PM CDT
Nautical Twilight 6:38 AM CDT 7:27 PM CDT
Astronomical Twilight 6:07 AM CDT 7:57 PM CDT
Moon 3:09 PM CDT (10/23) 1:33 AM CDT (10/23)
Length of Visible Light 11h 46m
Length of Day
10h 51m
Waxing Gibbous, 67% of the Moon is Illuminated
Oct 23
Waxing Gibbous
Oct 29
Full
Nov 6
Last Quarter
Nov 13
New
Nov 20
First Quarter

Hourly Weather History & Observations

Time (CDT) Temp. Dew Point Humidity Pressure Visibility Wind Dir Wind Speed Gust Speed Precip Events Conditions
1:53 AM 69.1 °F 64.0 °F 84% 29.81 in 10.0 mi South 10.4 mph - N/A   Mostly Cloudy
2:53 AM 69.1 °F 64.9 °F 87% 29.79 in 10.0 mi South 15.0 mph 21.9 mph N/A   Overcast
3:53 AM 70.0 °F 64.9 °F 84% 29.78 in 10.0 mi South 13.8 mph 25.3 mph N/A   Overcast
5:53 AM 71.1 °F 66.0 °F 84% 29.78 in 10.0 mi SSW 12.7 mph 18.4 mph N/A   Overcast
6:53 AM 71.1 °F 64.9 °F 81% 29.78 in 10.0 mi South 11.5 mph 17.3 mph N/A   Overcast
7:53 AM 70.0 °F 64.9 °F 84% 29.78 in 10.0 mi South 11.5 mph - N/A   Overcast
8:53 AM 69.1 °F 64.9 °F 87% 29.80 in 9.0 mi SSE 8.1 mph - N/A   Overcast
9:53 AM 69.1 °F 64.0 °F 84% 29.79 in 10.0 mi SSE 11.5 mph - N/A   Overcast
10:53 AM 71.1 °F 64.9 °F 81% 29.78 in 10.0 mi South 13.8 mph - N/A   Overcast
11:53 AM 73.0 °F 64.9 °F 76% 29.77 in 10.0 mi SSW 13.8 mph 21.9 mph N/A   Overcast
12:53 PM 73.9 °F 64.9 °F 73% 29.75 in 10.0 mi South 18.4 mph 26.5 mph N/A   Overcast
1:53 PM 75.9 °F 64.9 °F 69% 29.73 in 10.0 mi SSW 12.7 mph 25.3 mph N/A   Mostly Cloudy
2:53 PM 77.0 °F 64.9 °F 66% 29.71 in 10.0 mi SSW 17.3 mph 28.8 mph N/A   Mostly Cloudy
3:53 PM 78.1 °F 64.9 °F 64% 29.70 in 10.0 mi SSW 19.6 mph 26.5 mph N/A   Scattered Clouds
4:53 PM 75.9 °F 64.0 °F 67% 29.71 in 10.0 mi South 12.7 mph 21.9 mph N/A   Partly Cloudy
6:53 PM 73.0 °F 64.0 °F 73% 29.74 in 10.0 mi South 15.0 mph 20.7 mph N/A   Partly Cloudy
7:53 PM 72.0 °F 64.0 °F 76% 29.75 in 10.0 mi South 13.8 mph - N/A   Clear
8:53 PM 71.1 °F 64.9 °F 81% 29.76 in 10.0 mi South 16.1 mph 23.0 mph N/A   Clear
9:53 PM 71.1 °F 64.9 °F 81% 29.78 in 10.0 mi South 12.7 mph 20.7 mph N/A   Mostly Cloudy
10:37 PM 71.6 °F 64.4 °F 78% 29.81 in 10.0 mi South 12.7 mph 20.7 mph N/A   Partly Cloudy
10:53 PM 71.1 °F 64.9 °F 81% 29.78 in 10.0 mi South 12.7 mph - N/A   Scattered Clouds
11:25 PM 71.6 °F 64.4 °F 78% 29.81 in 10.0 mi South 12.7 mph 25.3 mph N/A   Mostly Cloudy
11:53 PM 72.0 °F 64.9 °F 78% 29.78 in 10.0 mi South 13.8 mph 27.6 mph N/A   Overcast